| time (UTC) | temp F | wind direction | speed MPH | gust MPH | rain 1hr in | rain 24hr in | rain mn in | humidity % | barometer mb |
| 20260905135254 | 63 | 19 | 2.0 | 5.0 | 0.00 | 0.00 | 0.00 | 65 | 995.2 |
| 20260905134552 | 62 | 22 | 0.0 | 1.0 | 0.00 | 0.00 | 0.00 | 65 | 995.2 |
| 20260905133849 | 62 | 22 | 2.0 | 2.0 | 0.00 | 0.00 | 0.00 | 64 | 995.2 |
| 20260905133147 | 62 | 357 | 1.0 | 2.0 | 0.00 | 0.00 | 0.00 | 63 | 995.2 |
| 20260905132456 | 63 | 20 | 3.0 | 7.0 | 0.00 | 0.00 | 0.00 | 61 | 995.2 |
| 20260905131753 | 65 | 358 | 2.0 | 2.0 | 0.00 | 0.00 | 0.00 | 60 | 995.2 |
| 20260905131051 | 65 | 22 | 1.0 | 2.0 | 0.00 | 0.00 | 0.00 | 59 | 995.1 |
| 20260905130348 | 65 | 13 | 1.0 | 6.0 | 0.00 | 0.00 | 0.00 | 60 | 995.1 |
| 20260905125657 | 65 | 277 | 2.0 | 5.0 | 0.00 | 0.00 | 0.00 | 59 | 995.1 |
| 20260905124956 | 67 | 8 | 3.0 | 3.0 | 0.00 | 0.00 | 0.00 | 55 | 995.1 |
| 20260905124255 | 74 | 253 | 3.0 | 6.0 | 0.00 | 0.00 | 0.00 | 48 | 995.0 |
| 20260905123553 | 80 | 355 | 2.0 | 5.0 | 0.00 | 0.00 | 0.00 | 42 | 994.9 |
| 20260905122851 | 82 | 328 | 1.0 | 5.0 | 0.00 | 0.00 | 0.00 | 44 | 995.0 |
| 20260905122147 | 79 | 15 | 1.0 | 3.0 | 0.00 | 0.00 | 0.00 | 46 | 995.0 |
| 20260905121457 | 80 | 267 | 5.0 | 5.0 | 0.00 | 0.00 | 0.00 | 42 | 994.9 |
| 20260905120754 | 81 | 235 | 3.0 | 5.0 | 0.00 | 0.00 | 0.00 | 45 | 994.9 |
| 20260905120052 | 79 | 21 | 1.0 | 2.0 | 0.00 | 0.00 | 0.00 | 47 | 994.9 |
| 20260905115350 | 76 | 156 | 2.0 | 3.0 | 0.00 | 0.00 | 0.00 | 48 | 994.9 |
| 20260905114649 | 76 | 1 | 1.0 | 1.0 | 0.00 | 0.00 | 0.00 | 49 | 994.7 |
| 20260905113947 | 74 | 275 | 3.0 | 6.0 | 0.00 | 0.00 | 0.00 | 49 | 994.7 |
| 20260905113255 | 73 | 14 | 2.0 | 3.0 | 0.00 | 0.00 | 0.00 | 49 | 994.8 |
| 20260905112553 | 73 | 16 | 2.0 | 5.0 | 0.00 | 0.00 | 0.00 | 49 | 994.5 |
| 20260905111851 | 73 | 357 | 5.0 | 8.0 | 0.00 | 0.00 | 0.00 | 50 | 994.8 |
| 20260905111148 | 72 | 24 | 2.0 | 5.0 | 0.00 | 0.00 | 0.00 | 51 | 994.8 |
| 20260905110447 | 69 | 270 | 0.0 | 0.0 | 0.00 | 0.00 | 0.00 | 57 | 994.7 |
| 20260905105757 | 69 | 270 | 0.0 | 0.0 | 0.00 | 0.00 | 0.00 | 57 | 994.7 |
| 20260905105054 | 68 | 288 | 3.0 | 6.0 | 0.00 | 0.00 | 0.00 | 56 | 994.6 |
| 20260905104352 | 66 | 341 | 1.0 | 3.0 | 0.00 | 0.00 | 0.00 | 60 | 994.7 |
| 20260905103651 | 64 | 290 | 2.0 | 3.0 | 0.00 | 0.00 | 0.00 | 64 | 994.5 |
| 20260905102948 | 62 | 275 | 1.0 | 0.0 | 0.00 | 0.00 | 0.00 | 64 | 994.4 |
| 20260905102247 | 61 | 249 | 3.0 | 3.0 | 0.00 | 0.00 | 0.00 | 65 | 994.4 |
| 20260905101555 | 61 | 263 | 1.0 | 6.0 | 0.00 | 0.00 | 0.00 | 66 | 994.4 |
| 20260905100853 | 60 | 275 | 5.0 | 3.0 | 0.00 | 0.00 | 0.00 | 66 | 994.2 |
| 20260905100150 | 61 | 309 | 1.0 | 3.0 | 0.00 | 0.00 | 0.00 | 66 | 994.3 |
| 20260905095447 | 61 | 248 | 3.0 | 5.0 | 0.00 | 0.00 | 0.00 | 67 | 994.3 |
| 20260905094757 | 61 | 248 | 1.0 | 3.0 | 0.00 | 0.00 | 0.00 | 70 | 994.2 |
| 20260905094054 | 62 | 248 | 0.0 | 1.0 | 0.00 | 0.00 | 0.00 | 66 | 994.2 |
| 20260905093405 | 63 | 248 | 1.0 | 3.0 | 0.00 | 0.00 | 0.00 | 67 | 994.1 |
| 20260905092650 | 64 | 248 | 1.0 | 6.0 | 0.00 | 0.00 | 0.00 | 69 | 994.2 |
| 20260905091948 | 63 | 248 | 1.0 | 0.0 | 0.00 | 0.00 | 0.00 | 67 | 994.2 |
| 20260905091257 | 63 | 248 | 1.0 | 3.0 | 0.00 | 0.00 | 0.00 | 73 | 994.1 |
| 20260905090555 | 60 | 248 | 1.0 | 1.0 | 0.00 | 0.00 | 0.00 | 75 | 994.1 |
| 20260905085853 | 61 | 248 | 0.0 | 1.0 | 0.00 | 0.00 | 0.00 | 72 | 994.1 |
| 20260905085150 | 63 | 248 | 2.0 | 3.0 | 0.00 | 0.00 | 0.00 | 68 | 994.1 |
| 20260905084447 | 66 | 248 | 1.0 | 3.0 | 0.00 | 0.00 | 0.00 | 65 | 994.1 |
| 20260905083757 | 67 | 248 | 1.0 | 1.0 | 0.00 | 0.00 | 0.00 | 67 | 994.0 |
| 20260905083055 | 67 | 248 | 0.0 | 3.0 | 0.00 | 0.00 | 0.00 | 66 | 994.0 |
| 20260905082354 | 67 | 248 | 2.0 | 3.0 | 0.00 | 0.00 | 0.00 | 65 | 993.9 |
| 20260905081652 | 67 | 248 | 2.0 | 3.0 | 0.00 | 0.00 | 0.00 | 65 | 993.9 |
| 20260905080949 | 68 | 248 | 1.0 | 2.0 | 0.00 | 0.00 | 0.00 | 67 | 994.0 |
| 20260905080247 | 67 | 248 | 1.0 | 2.0 | 0.00 | 0.00 | 0.00 | 68 | 994.0 |
| 20260905075556 | 68 | 248 | 0.0 | 0.0 | 0.00 | 0.00 | 0.00 | 66 | 993.9 |
| 20260905074854 | 69 | 248 | 2.0 | 5.0 | 0.00 | 0.00 | 0.00 | 66 | 993.9 |
| 20260905074152 | 71 | 248 | 1.0 | 3.0 | 0.00 | 0.00 | 0.00 | 68 | 994.0 |
| 20260905073448 | 70 | 248 | 0.0 | 1.0 | 0.00 | 0.00 | 0.00 | 69 | 993.9 |
| 20260905072747 | 69 | 248 | 0.0 | 2.0 | 0.00 | 0.00 | 0.00 | 69 | 993.6 |
| 20260905072045 | 71 | 248 | 1.0 | 2.0 | 0.00 | 0.00 | 0.00 | 69 | 993.8 |
| 20260905071355 | 70 | 248 | 1.0 | 1.0 | 0.00 | 0.00 | 0.00 | 72 | 993.8 |
| 20260905070653 | 70 | 248 | 1.0 | 5.0 | 0.00 | 0.00 | 0.00 | 76 | 993.9 |
| 20260905065949 | 68 | 248 | 2.0 | 2.0 | 0.00 | 0.00 | 0.00 | 79 | 993.7 |
| 20260905065247 | 67 | 248 | 1.0 | 1.0 | 0.00 | 0.00 | 0.00 | 82 | 993.7 |
| 20260905064557 | 64 | 248 | 2.0 | 2.0 | 0.00 | 0.00 | 0.00 | 84 | 993.9 |
| 20260905063855 | 60 | 248 | 2.0 | 5.0 | 0.00 | 0.00 | 0.00 | 84 | 993.8 |
| 20260905063154 | 56 | 248 | 1.0 | 1.0 | 0.00 | 0.00 | 0.00 | 84 | 993.8 |
| 20260905062453 | 55 | 248 | 0.0 | 0.0 | 0.00 | 0.00 | 0.00 | 84 | 993.7 |
| 20260905061751 | 54 | 248 | 0.0 | 1.0 | 0.00 | 0.00 | 0.00 | 84 | 993.6 |
| 20260905061049 | 53 | 248 | 0.0 | 0.0 | 0.00 | 0.00 | 0.00 | 85 | 993.5 |
| 20260905060348 | 53 | 248 | 0.0 | 0.0 | 0.00 | 0.00 | 0.00 | 85 | 993.5 |
| 20260905055646 | 52 | 248 | 0.0 | 2.0 | 0.00 | 0.00 | 0.00 | 85 | 993.5 |
| 20260905054956 | 52 | 248 | 0.0 | 0.0 | 0.00 | 0.00 | 0.00 | 85 | 993.6 |
| 20260905054254 | 51 | 248 | 0.0 | 0.0 | 0.00 | 0.00 | 0.00 | 85 | 993.6 |
| 20260905053552 | 51 | 248 | 0.0 | 0.0 | 0.00 | 0.00 | 0.00 | 85 | 993.6 |
| 20260905052850 | 51 | 248 | 0.0 | 0.0 | 0.00 | 0.00 | 0.00 | 85 | 993.6 |
| 20260905052148 | 50 | 248 | 0.0 | 0.0 | 0.00 | 0.00 | 0.00 | 85 | 993.5 |
| 20260905051457 | 50 | 248 | 0.0 | 0.0 | 0.00 | 0.00 | 0.00 | 85 | 993.6 |
| 20260905050755 | 49 | 248 | 0.0 | 0.0 | 0.00 | 0.00 | 0.00 | 85 | 993.5 |
| 20260905050053 | 49 | 248 | 0.0 | 0.0 | 0.00 | 0.00 | 0.00 | 85 | 993.6 |
| 20260905045353 | 49 | 248 | 0.0 | 0.0 | 0.00 | 0.00 | 0.00 | 85 | 993.8 |
| 20260905044651 | 49 | 248 | 0.0 | 0.0 | 0.00 | 0.00 | 0.00 | 85 | 993.9 |
| 20260905043950 | 49 | 248 | 0.0 | 0.0 | 0.00 | 0.00 | 0.00 | 85 | 993.9 |
| 20260905043249 | 49 | 248 | 0.0 | 0.0 | 0.00 | 0.00 | 0.00 | 86 | 993.9 |
| 20260905042548 | 47 | 248 | 0.0 | 0.0 | 0.00 | 0.00 | 0.00 | 86 | 993.9 |
| 20260905041857 | 47 | 248 | 0.0 | 0.0 | 0.00 | 0.00 | 0.00 | 86 | 993.8 |
| 20260905041155 | 47 | 248 | 0.0 | 0.0 | 0.00 | 0.00 | 0.00 | 86 | 993.8 |
| 20260905040452 | 46 | 248 | 0.0 | 0.0 | 0.00 | 0.00 | 0.00 | 86 | 993.8 |
| 20260905035749 | 46 | 248 | 0.0 | 0.0 | 0.00 | 0.00 | 0.00 | 86 | 993.8 |
| 20260905035047 | 46 | 248 | 0.0 | 0.0 | 0.00 | 0.00 | 0.00 | 86 | 993.8 |
| 20260905034357 | 46 | 248 | 0.0 | 0.0 | 0.00 | 0.00 | 0.00 | 86 | 993.8 |
| 20260905033655 | 46 | 248 | 0.0 | 0.0 | 0.00 | 0.00 | 0.00 | 86 | 993.9 |
| 20260905032954 | 46 | 248 | 0.0 | 0.0 | 0.00 | 0.00 | 0.00 | 86 | 994.1 |
| 20260905032253 | 45 | 248 | 0.0 | 0.0 | 0.00 | 0.00 | 0.00 | 86 | 994.0 |
| 20260905031552 | 45 | 248 | 0.0 | 0.0 | 0.00 | 0.00 | 0.00 | 86 | 994.1 |
| 20260905030849 | 45 | 248 | 0.0 | 0.0 | 0.00 | 0.00 | 0.00 | 86 | 994.1 |
| 20260905030148 | 45 | 248 | 0.0 | 0.0 | 0.00 | 0.00 | 0.00 | 86 | 994.0 |
| 20260905025446 | 45 | 248 | 0.0 | 0.0 | 0.00 | 0.00 | 0.00 | 86 | 994.0 |
| 20260905024756 | 45 | 248 | 0.0 | 0.0 | 0.00 | 0.00 | 0.00 | 86 | 994.0 |
| 20260905024105 | 45 | 248 | 0.0 | 0.0 | 0.00 | 0.00 | 0.00 | 86 | 993.9 |
| 20260905023350 | 45 | 248 | 0.0 | 0.0 | 0.00 | 0.00 | 0.00 | 86 | 994.0 |
| 20260905022648 | 45 | 248 | 0.0 | 0.0 | 0.00 | 0.00 | 0.00 | 86 | 994.0 |
| 20260905021946 | 45 | 248 | 0.0 | 0.0 | 0.00 | 0.00 | 0.00 | 86 | 994.0 |
| 20260905021256 | 45 | 248 | 0.0 | 0.0 | 0.00 | 0.00 | 0.00 | 85 | 994.0 |
| 20260905020554 | 45 | 248 | 0.0 | 0.0 | 0.00 | 0.00 | 0.00 | 85 | 994.2 |
| 20260905015853 | 44 | 248 | 0.0 | 0.0 | 0.00 | 0.00 | 0.00 | 85 | 994.0 |
| 20260905015153 | 44 | 248 | 0.0 | 0.0 | 0.00 | 0.00 | 0.00 | 85 | 994.0 |
| 20260905014451 | 44 | 248 | 0.0 | 0.0 | 0.00 | 0.00 | 0.00 | 85 | 994.0 |
| 20260905013748 | 44 | 248 | 0.0 | 0.0 | 0.00 | 0.00 | 0.00 | 85 | 994.0 |
| 20260905013046 | 44 | 248 | 0.0 | 0.0 | 0.00 | 0.00 | 0.00 | 85 | 994.0 |
| 20260905012356 | 45 | 248 | 0.0 | 0.0 | 0.00 | 0.00 | 0.00 | 85 | 994.0 |
| 20260905011654 | 45 | 248 | 0.0 | 0.0 | 0.00 | 0.00 | 0.00 | 85 | 993.9 |
| 20260905010953 | 45 | 248 | 0.0 | 0.0 | 0.00 | 0.00 | 0.00 | 85 | 994.0 |
| 20260905010249 | 46 | 248 | 0.0 | 0.0 | 0.00 | 0.00 | 0.00 | 85 | 994.0 |
| 20260905005547 | 46 | 248 | 0.0 | 0.0 | 0.00 | 0.00 | 0.00 | 85 | 993.9 |
| 20260905004856 | 46 | 248 | 0.0 | 0.0 | 0.00 | 0.00 | 0.00 | 85 | 994.1 |
| 20260905004155 | 46 | 248 | 0.0 | 0.0 | 0.00 | 0.00 | 0.00 | 85 | 994.1 |
| 20260905003454 | 46 | 248 | 0.0 | 0.0 | 0.00 | 0.00 | 0.00 | 85 | 994.1 |
| 20260905002751 | 47 | 248 | 0.0 | 0.0 | 0.00 | 0.00 | 0.00 | 85 | 994.2 |
| 20260905002049 | 47 | 248 | 0.0 | 0.0 | 0.00 | 0.00 | 0.00 | 85 | 994.2 |
| 20260905001357 | 47 | 248 | 0.0 | 0.0 | 0.00 | 0.00 | 0.00 | 85 | 994.3 |
| 20260905000656 | 47 | 248 | 0.0 | 0.0 | 0.00 | 0.00 | 0.00 | 85 | 994.4 |
| 20260904235953 | 47 | 248 | 0.0 | 0.0 | 0.00 | 0.00 | 0.00 | 85 | 994.3 |
| 20260904235251 | 47 | 248 | 0.0 | 0.0 | 0.00 | 0.00 | 0.00 | 85 | 994.4 |
| 20260904234550 | 47 | 248 | 0.0 | 0.0 | 0.00 | 0.00 | 0.00 | 85 | 994.5 |
| 20260904233846 | 47 | 248 | 0.0 | 0.0 | 0.00 | 0.00 | 0.00 | 85 | 994.5 |
| 20260904233157 | 46 | 248 | 0.0 | 0.0 | 0.00 | 0.00 | 0.00 | 85 | 994.7 |
| 20260904232456 | 46 | 248 | 0.0 | 0.0 | 0.00 | 0.00 | 0.00 | 85 | 994.8 |
| 20260904231754 | 46 | 248 | 0.0 | 0.0 | 0.00 | 0.00 | 0.00 | 85 | 994.8 |
| 20260904231052 | 46 | 248 | 0.0 | 0.0 | 0.00 | 0.00 | 0.00 | 85 | 994.8 |
| 20260904230349 | 46 | 248 | 0.0 | 0.0 | 0.00 | 0.00 | 0.00 | 85 | 994.9 |
| 20260904225648 | 46 | 248 | 0.0 | 0.0 | 0.00 | 0.00 | 0.00 | 85 | 994.8 |
| 20260904224947 | 46 | 248 | 0.0 | 0.0 | 0.00 | 0.00 | 0.00 | 85 | 994.9 |
| 20260904224256 | 46 | 248 | 0.0 | 0.0 | 0.00 | 0.00 | 0.00 | 85 | 994.9 |
| 20260904223555 | 46 | 248 | 0.0 | 0.0 | 0.00 | 0.00 | 0.00 | 85 | 995.0 |
| 20260904222852 | 46 | 248 | 0.0 | 0.0 | 0.00 | 0.00 | 0.00 | 85 | 995.1 |
| 20260904222149 | 47 | 248 | 0.0 | 0.0 | 0.00 | 0.00 | 0.00 | 85 | 995.2 |
| 20260904221448 | 47 | 248 | 0.0 | 0.0 | 0.00 | 0.00 | 0.00 | 85 | 995.2 |
| 20260904220747 | 47 | 248 | 0.0 | 0.0 | 0.00 | 0.00 | 0.00 | 85 | 995.2 |
| 20260904220057 | 46 | 248 | 0.0 | 0.0 | 0.00 | 0.00 | 0.00 | 85 | 995.3 |
| 20260904215355 | 46 | 248 | 0.0 | 0.0 | 0.00 | 0.00 | 0.00 | 85 | 995.2 |
| 20260904214653 | 46 | 248 | 0.0 | 0.0 | 0.00 | 0.00 | 0.00 | 85 | 995.3 |
| 20260904213951 | 46 | 248 | 0.0 | 0.0 | 0.00 | 0.00 | 0.00 | 85 | 995.4 |
| 20260904213249 | 46 | 248 | 0.0 | 0.0 | 0.00 | 0.00 | 0.00 | 85 | 995.4 |
| 20260904212548 | 46 | 248 | 0.0 | 0.0 | 0.00 | 0.00 | 0.00 | 85 | 995.5 |
| 20260904211847 | 46 | 248 | 0.0 | 0.0 | 0.00 | 0.00 | 0.00 | 85 | 995.5 |
| 20260904211156 | 46 | 248 | 0.0 | 0.0 | 0.00 | 0.00 | 0.00 | 85 | 995.6 |
| 20260904210455 | 46 | 248 | 0.0 | 0.0 | 0.00 | 0.00 | 0.00 | 85 | 995.6 |
| 20260904205753 | 46 | 248 | 0.0 | 0.0 | 0.00 | 0.00 | 0.00 | 85 | 995.6 |
| 20260904205053 | 46 | 248 | 0.0 | 0.0 | 0.00 | 0.00 | 0.00 | 85 | 995.6 |
| 20260904204351 | 46 | 248 | 0.0 | 0.0 | 0.00 | 0.00 | 0.00 | 84 | 995.6 |
| 20260904203648 | 46 | 248 | 0.0 | 0.0 | 0.00 | 0.00 | 0.00 | 84 | 995.7 |
| 20260904202946 | 47 | 248 | 0.0 | 0.0 | 0.00 | 0.00 | 0.00 | 85 | 995.9 |
| 20260904202257 | 47 | 248 | 0.0 | 0.0 | 0.00 | 0.00 | 0.00 | 85 | 995.9 |
| 20260904201554 | 47 | 248 | 0.0 | 0.0 | 0.00 | 0.00 | 0.00 | 85 | 995.9 |
| 20260904200853 | 47 | 248 | 0.0 | 0.0 | 0.00 | 0.00 | 0.00 | 85 | 996.0 |
| 20260904200152 | 47 | 248 | 0.0 | 0.0 | 0.00 | 0.00 | 0.00 | 85 | 996.0 |
| 20260904195450 | 47 | 248 | 0.0 | 0.0 | 0.00 | 0.00 | 0.00 | 85 | 996.3 |
| 20260904194748 | 47 | 248 | 0.0 | 0.0 | 0.00 | 0.00 | 0.00 | 85 | 996.3 |
| 20260904194057 | 47 | 248 | 0.0 | 0.0 | 0.00 | 0.00 | 0.00 | 85 | 996.3 |
| 20260904193355 | 46 | 248 | 0.0 | 0.0 | 0.00 | 0.00 | 0.00 | 85 | 996.4 |
| 20260904192653 | 46 | 248 | 0.0 | 0.0 | 0.00 | 0.00 | 0.00 | 85 | 996.3 |
| 20260904191952 | 46 | 248 | 0.0 | 0.0 | 0.00 | 0.00 | 0.00 | 85 | 996.5 |
| 20260904191250 | 46 | 248 | 0.0 | 0.0 | 0.00 | 0.00 | 0.00 | 85 | 996.4 |
| 20260904190548 | 46 | 248 | 0.0 | 0.0 | 0.00 | 0.00 | 0.00 | 85 | 996.5 |
| 20260904185846 | 46 | 248 | 0.0 | 0.0 | 0.00 | 0.00 | 0.00 | 85 | 996.4 |
| 20260904185156 | 46 | 248 | 0.0 | 0.0 | 0.00 | 0.00 | 0.00 | 85 | 996.4 |
| 20260904184454 | 46 | 248 | 0.0 | 0.0 | 0.00 | 0.00 | 0.00 | 85 | 996.5 |
| 20260904183752 | 46 | 248 | 0.0 | 0.0 | 0.00 | 0.00 | 0.00 | 85 | 996.5 |
| 20260904183049 | 46 | 248 | 0.0 | 0.0 | 0.00 | 0.00 | 0.00 | 85 | 996.5 |
| 20260904182347 | 47 | 248 | 0.0 | 0.0 | 0.00 | 0.00 | 0.00 | 85 | 996.5 |
| 20260904181656 | 47 | 248 | 0.0 | 0.0 | 0.00 | 0.00 | 0.00 | 85 | 996.5 |
| 20260904180955 | 47 | 248 | 0.0 | 0.0 | 0.00 | 0.00 | 0.00 | 85 | 996.6 |
| 20260904180254 | 48 | 248 | 0.0 | 0.0 | 0.00 | 0.00 | 0.00 | 85 | 996.6 |
| 20260904175552 | 48 | 248 | 0.0 | 0.0 | 0.00 | 0.00 | 0.00 | 85 | 996.6 |
| 20260904174850 | 48 | 248 | 0.0 | 0.0 | 0.00 | 0.00 | 0.00 | 85 | 996.6 |
| 20260904174146 | 48 | 248 | 0.0 | 0.0 | 0.00 | 0.00 | 0.00 | 85 | 996.7 |
| 20260904173457 | 48 | 248 | 0.0 | 0.0 | 0.00 | 0.00 | 0.00 | 85 | 996.6 |
| 20260904172756 | 49 | 248 | 0.0 | 0.0 | 0.00 | 0.00 | 0.00 | 85 | 996.7 |
| 20260904172054 | 49 | 248 | 0.0 | 1.0 | 0.00 | 0.00 | 0.00 | 85 | 996.8 |
| 20260904171352 | 49 | 248 | 0.0 | 1.0 | 0.00 | 0.00 | 0.00 | 84 | 996.9 |
| 20260904170651 | 50 | 248 | 0.0 | 0.0 | 0.00 | 0.00 | 0.00 | 84 | 996.8 |
| 20260904165948 | 50 | 248 | 0.0 | 0.0 | 0.00 | 0.00 | 0.00 | 84 | 996.8 |
| 20260904165246 | 51 | 248 | 0.0 | 0.0 | 0.00 | 0.00 | 0.00 | 84 | 996.8 |
| 20260904164555 | 51 | 248 | 0.0 | 0.0 | 0.00 | 0.00 | 0.00 | 84 | 996.9 |
| 20260904163853 | 52 | 248 | 0.0 | 0.0 | 0.00 | 0.00 | 0.00 | 83 | 997.0 |
| 20260904163151 | 52 | 248 | 0.0 | 0.0 | 0.00 | 0.00 | 0.00 | 83 | 997.0 |
| 20260904162448 | 52 | 248 | 0.0 | 0.0 | 0.00 | 0.00 | 0.00 | 82 | 997.1 |
| 20260904161758 | 53 | 248 | 0.0 | 0.0 | 0.00 | 0.00 | 0.00 | 81 | 997.1 |
| 20260904161054 | 53 | 248 | 0.0 | 0.0 | 0.00 | 0.00 | 0.00 | 81 | 997.0 |
| 20260904160352 | 53 | 248 | 0.0 | 0.0 | 0.00 | 0.00 | 0.00 | 80 | 996.9 |
| 20260904155651 | 53 | 248 | 0.0 | 0.0 | 0.00 | 0.00 | 0.00 | 80 | 996.9 |
| 20260904154949 | 53 | 248 | 0.0 | 0.0 | 0.00 | 0.00 | 0.00 | 80 | 996.9 |
| 20260904154246 | 54 | 248 | 0.0 | 0.0 | 0.00 | 0.00 | 0.00 | 79 | 996.8 |
| 20260904153555 | 54 | 248 | 0.0 | 0.0 | 0.00 | 0.00 | 0.00 | 78 | 996.9 |
| 20260904152852 | 54 | 294 | 0.0 | 0.0 | 0.00 | 0.00 | 0.00 | 77 | 996.8 |
| 20260904152151 | 55 | 248 | 0.0 | 0.0 | 0.00 | 0.00 | 0.00 | 77 | 996.9 |
| 20260904151447 | 55 | 248 | 0.0 | 0.0 | 0.00 | 0.00 | 0.00 | 76 | 996.8 |
| 20260904150756 | 55 | 248 | 0.0 | 0.0 | 0.00 | 0.00 | 0.00 | 76 | 996.8 |
| 20260904150053 | 55 | 248 | 0.0 | 0.0 | 0.00 | 0.00 | 0.00 | 76 | 996.9 |
| 20260904145351 | 55 | 248 | 0.0 | 0.0 | 0.00 | 0.00 | 0.00 | 75 | 996.9 |
| 20260904144649 | 56 | 248 | 0.0 | 0.0 | 0.00 | 0.00 | 0.00 | 75 | 996.8 |
| 20260904143957 | 56 | 248 | 1.0 | 2.0 | 0.00 | 0.00 | 0.00 | 74 | 996.8 |
| 20260904143255 | 56 | 248 | 1.0 | 3.0 | 0.00 | 0.00 | 0.00 | 73 | 997.0 |
| 20260904142553 | 57 | 248 | 1.0 | 2.0 | 0.00 | 0.00 | 0.00 | 72 | 997.0 |
| 20260904141850 | 57 | 248 | 1.0 | 3.0 | 0.00 | 0.00 | 0.00 | 73 | 996.9 |
| 20260904141148 | 57 | 248 | 1.0 | 2.0 | 0.00 | 0.00 | 0.00 | 73 | 997.1 |
| 20260904140457 | 57 | 248 | 2.0 | 3.0 | 0.00 | 0.00 | 0.00 | 74 | 997.1 |
| 20260904135755 | 58 | 248 | 1.0 | 3.0 | 0.00 | 0.00 | 0.00 | 72 | 997.1 |